Regional Weather Roundup
Issued by NWS State College, PA

Home | Current Version | Previous Version | Text Only | Print | Product List | Glossary On
Versions: 1 2 3 4 5 6 7 8 9 10 11 12 13 14 15 16 17 18 19 20 21 22 23 24 25 26 27 28 29 30 31 32 33 34 35 36 37 38 39 40 41 42 43 44 45 46 47 48 49 50
000
ASUS41 KCTP 271210
RWRCTP

REGIONAL WEATHER ROUNDUP
NATIONAL WEATHER SERVICE STATE COLLEGE PA
800 AM EDT TUE SEP 27 2016

Note: "fair" indicates few or no clouds below 12,000 feet with no
significant weather and/or obstructions to visibility.

* = STATION THAT DOES NOT REPORT PRECIPITATION /E.G. RAIN...SNOW...ETC/
    THUNDER OR FOG.

PAZ002>004-007>009-013>016-020>023-029>032-271300-
WESTERN PENNSYLVANIA

CITY           SKY/WX    TMP DP  RH WIND       PRES   REMARKS
ERIE           CLEAR     54  46  74 S13       29.88S
MEADVILLE      CLEAR     49  46  90 SW9       29.92S
FRANKLIN*        N/A     46  43  87 S8        29.96R
NEW CASTLE     FAIR      50  49  96 VRB6      29.96S
BEAVER COUNTY  CLEAR     50  48  93 SW5       29.97R
BUTLER*        CLEAR     50  46  87 SW3       30.00R
PITTSBURGH INT CLEAR     53  51  93 SW6       29.97S
PITTSBURGH     CLEAR     53  49  86 S9        29.97S
INDIANA*       CLOUDY    54  54 100 SW7       30.01R FOG
LATROBE        CLEAR     54  54 100 SW9       30.00R
WASHINGTON CO* CLEAR     48  46  93 SW3       29.99S
$$

PAZ004>006-010>012-017>019-024>028-033>037-041-042-045-046-049>053-271300-
CENTRAL PENNSYLVANIA

CITY           SKY/WX    TMP DP  RH WIND       PRES   REMARKS
BRADFORD       CLEAR     49  48  97 SW5       29.94S
DUBOIS         CLEAR     50  47  89 SW7       29.95S
CLEARFIELD     FOG       52  52 100 S3        29.97R VSB 3/4
JOHNSTOWN      CLEAR     50  48  93 SW7       29.99R
ALTOONA        CLEAR     51  49  92 SW7       29.98S
STATE COLLEGE  CLEAR     52  50  93 SW5       29.97R
WILLIAMSPORT   FOG       56  56 100 N3        29.95R VSB 3/4
SELINSGROVE    FOG       53  53 100 CALM      29.96S VSB<1/4
FT INDIANTOWN  PTSUNNY   56  56 100 VRB2      29.95S
CAPITAL CITY   CLOUDY    59  56  89 CALM      29.96R
HARRISBURG     MOSUNNY   60  59  96 W3        29.95R
YORK           PTSUNNY   56  56 100 CALM      29.97R FOG
$$

PAZ038>040-043-044-047-048-054-055-060>062-067>071-271300-
EASTERN PENNSYLVANIA

CITY           SKY/WX    TMP DP  RH WIND       PRES   REMARKS
SCRANTON       MOSUNNY   58  57  97 SW3       29.94R FOG
MOUNT POCONO   CLOUDY    55  53  93 NW7       29.95R
ALLENTOWN      CLOUDY    61  58  90 W3        29.94R FOG
QUAKERTOWN*    CLOUDY    59  59 100 CALM      29.95R
READING        CLOUDY    60  58  92 NW6       29.94R FOG
LANCASTER      FOG       60  60 100 W7        29.96R VSB 1/4
COATESVILLE    CLOUDY    61  61 100 W3        29.96R FOG
POTTSTOWN      CLOUDY    60  60 100 CALM      29.96R FOG
BLUE BELL      CLOUDY    61  61 100 CALM      29.93S
DOYLESTOWN     CLOUDY    63  62  97 CALM      29.93R
WILLOW GROVE   NOT AVBL
NORTH PHILA    CLOUDY    66  63  90 NW5       29.94S
PHILADELPHIA   CLOUDY    66  62  87 NW5       29.94S
$$



USA.gov is the U.S. government's official web portal to all federal, state and local government web resources and services.